Stündliche Wetter Holyshiv

Heute, 15 Juni, Dienstag

Zeit Temperatur Niederschläge Wind Luftdruck Luftfeuchtigkeit
00:00 +13°C° 0 mm 2 m/S 746 mmHg 95%
01:00 +13°C° 0 mm 2 m/S 746 mmHg 95%
02:00 +13°C° 0 mm 2 m/S 746 mmHg 95%
03:00 +13°C° 0 mm 2 m/S 746 mmHg 95%
04:00 +13°C° 0 mm 2 m/S 746 mmHg 96%
05:00 +13°C° 0 mm 2 m/S 746 mmHg 96%
06:00 +15°C° 0 mm 2 m/S 746 mmHg 91%
07:00 +16°C° 0 mm 2 m/S 746 mmHg 87%
08:00 +18°C° 0 mm 2 m/S 747 mmHg 82%
09:00 +19°C° 0 mm 3 m/S 746 mmHg 77%
10:00 +21°C° 0 mm 3 m/S 746 mmHg 72%
11:00 +22°C° 0 mm 3 m/S 746 mmHg 67%
12:00 +22°C° 0 mm 3 m/S 746 mmHg 66%
13:00 +22°C° 0 mm 4 m/S 746 mmHg 66%
14:00 +23°C° 0 mm 4 m/S 745 mmHg 65%
15:00 +23°C° 0 mm 4 m/S 745 mmHg 65%
16:00 +24°C° 0 mm 3 m/S 745 mmHg 65%
17:00 +24°C° 0 mm 3 m/S 745 mmHg 65%
18:00 +21°C° 0 mm 3 m/S 745 mmHg 70%
19:00 +20°C° 0 mm 3 m/S 745 mmHg 75%
20:00 +19°C° 0 mm 3 m/S 745 mmHg 80%
21:00 +17°C° 0 mm 3 m/S 745 mmHg 81%
22:00 +16°C° 0 mm 3 m/S 745 mmHg 82%
23:00 +15°C° 0 mm 2 m/S 745 mmHg 83%

Morgen, 16 Juni, Mittwoch

Zeit Temperatur Niederschläge Wind Luftdruck Luftfeuchtigkeit
00:00 +15°C° 0 mm 2 m/S 745 mmHg 85%
01:00 +14°C° 0 mm 2 m/S 745 mmHg 86%
02:00 +14°C° 0 mm 2 m/S 745 mmHg 87%
03:00 +14°C° 0 mm 2 m/S 745 mmHg 88%
04:00 +14°C° 0 mm 2 m/S 745 mmHg 89%
05:00 +14°C° 0 mm 2 m/S 745 mmHg 90%
06:00 +16°C° 0 mm 2 m/S 746 mmHg 87%
07:00 +18°C° 0 mm 3 m/S 746 mmHg 83%
08:00 +19°C° 0 mm 3 m/S 746 mmHg 79%
09:00 +21°C° 0.1 mm 3 m/S 746 mmHg 75%
10:00 +22°C° 0.1 mm 3 m/S 746 mmHg 71%
11:00 +23°C° 0.1 mm 4 m/S 746 mmHg 67%
12:00 +23°C° 0.4 mm 4 m/S 746 mmHg 66%
13:00 +25°C° 0.4 mm 4 m/S 746 mmHg 65%
14:00 +25°C° 0.4 mm 4 m/S 746 mmHg 64%
15:00 +25°C° 0.3 mm 4 m/S 746 mmHg 67%
16:00 +25°C° 0.3 mm 4 m/S 746 mmHg 69%
17:00 +23°C° 0.3 mm 4 m/S 746 mmHg 72%
18:00 +22°C° 0.1 mm 4 m/S 746 mmHg 77%
19:00 +21°C° 0.1 mm 3 m/S 747 mmHg 81%
20:00 +19°C° 0.1 mm 3 m/S 747 mmHg 86%
21:00 +18°C° 0 mm 3 m/S 747 mmHg 87%
22:00 +17°C° 0 mm 3 m/S 747 mmHg 88%
23:00 +16°C° 0 mm 3 m/S 748 mmHg 89%

übermorgen, 17 Juni, Donnerstag

Zeit Temperatur Niederschläge Wind Luftdruck Luftfeuchtigkeit
00:00 +16°C° 0 mm 3 m/S 748 mmHg 89%
01:00 +14°C° 0 mm 3 m/S 748 mmHg 88%
02:00 +14°C° 0 mm 3 m/S 748 mmHg 88%
03:00 +15°C° 0 mm 2 m/S 748 mmHg 89%
04:00 +15°C° 0 mm 2 m/S 748 mmHg 90%
05:00 +14°C° 0 mm 2 m/S 749 mmHg 91%
06:00 +16°C° 0 mm 2 m/S 749 mmHg 87%
07:00 +18°C° 0 mm 3 m/S 749 mmHg 84%
08:00 +20°C° 0 mm 3 m/S 750 mmHg 81%
09:00 +22°C° 0 mm 3 m/S 750 mmHg 76%
10:00 +23°C° 0 mm 4 m/S 750 mmHg 70%
11:00 +26°C° 0 mm 4 m/S 750 mmHg 65%
12:00 +26°C° 0 mm 4 m/S 750 mmHg 62%
13:00 +27°C° 0 mm 4 m/S 750 mmHg 58%
14:00 +28°C° 0 mm 3 m/S 749 mmHg 54%
15:00 +28°C° 0 mm 3 m/S 749 mmHg 57%
16:00 +28°C° 0 mm 3 m/S 749 mmHg 59%
17:00 +28°C° 0 mm 3 m/S 749 mmHg 62%
18:00 +26°C° 0 mm 3 m/S 749 mmHg 67%
19:00 +25°C° 0 mm 3 m/S 749 mmHg 72%
20:00 +23°C° 0 mm 2 m/S 749 mmHg 77%
21:00 +23°C° 0 mm 2 m/S 750 mmHg 80%
22:00 +21°C° 0 mm 2 m/S 750 mmHg 83%
23:00 +20°C° 0 mm 2 m/S 750 mmHg 85%

18 Juni, Freitag

Zeit Temperatur Niederschläge Wind Luftdruck Luftfeuchtigkeit
00:00 +19°C° 0 mm 2 m/S 750 mmHg 88%
01:00 +18°C° 0 mm 2 m/S 750 mmHg 90%
02:00 +17°C° 0 mm 3 m/S 750 mmHg 92%
03:00 +17°C° 0 mm 3 m/S 750 mmHg 93%
04:00 +16°C° 0 mm 3 m/S 750 mmHg 93%
05:00 +16°C° 0 mm 3 m/S 751 mmHg 93%
06:00 +18°C° 0 mm 3 m/S 751 mmHg 87%
07:00 +19°C° 0 mm 3 m/S 751 mmHg 81%
08:00 +21°C° 0 mm 4 m/S 751 mmHg 75%
09:00 +22°C° 0 mm 4 m/S 751 mmHg 71%
10:00 +23°C° 0 mm 4 m/S 751 mmHg 66%
11:00 +25°C° 0 mm 4 m/S 751 mmHg 62%
12:00 +26°C° 0 mm 4 m/S 751 mmHg 60%
13:00 +26°C° 0 mm 4 m/S 750 mmHg 59%
14:00 +27°C° 0 mm 4 m/S 750 mmHg 58%
15:00 +27°C° 0 mm 4 m/S 750 mmHg 61%
16:00 +27°C° 0 mm 4 m/S 750 mmHg 63%
17:00 +27°C° 0 mm 4 m/S 750 mmHg 66%
18:00 +25°C° 0 mm 4 m/S 750 mmHg 72%
19:00 +23°C° 0 mm 4 m/S 750 mmHg 78%
20:00 +21°C° 0 mm 3 m/S 750 mmHg 84%
21:00 +20°C° 0 mm 3 m/S 750 mmHg 87%
22:00 +19°C° 0 mm 3 m/S 750 mmHg 91%
23:00 +18°C° 0 mm 3 m/S 750 mmHg 94%

19 Juni, Samstag

Zeit Temperatur Niederschläge Wind Luftdruck Luftfeuchtigkeit
00:00 +18°C° 0 mm 3 m/S 750 mmHg 95%
01:00 +18°C° 0 mm 3 m/S 750 mmHg 95%
02:00 +17°C° 0 mm 3 m/S 750 mmHg 96%
03:00 +17°C° 0 mm 3 m/S 750 mmHg 96%
04:00 +17°C° 0 mm 3 m/S 750 mmHg 96%
05:00 +17°C° 0 mm 3 m/S 751 mmHg 96%
06:00 +18°C° 0 mm 3 m/S 751 mmHg 91%
07:00 +20°C° 0 mm 4 m/S 751 mmHg 86%
08:00 +22°C° 0 mm 4 m/S 751 mmHg 81%
09:00 +23°C° 0 mm 5 m/S 751 mmHg 77%
10:00 +25°C° 0 mm 5 m/S 751 mmHg 73%
11:00 +26°C° 0 mm 5 m/S 750 mmHg 68%
12:00 +26°C° 0.1 mm 5 m/S 750 mmHg 67%
13:00 +27°C° 0.1 mm 4 m/S 750 mmHg 66%
14:00 +27°C° 0.1 mm 4 m/S 750 mmHg 66%
15:00 +27°C° 0 mm 4 m/S 750 mmHg 65%
16:00 +27°C° 0 mm 4 m/S 750 mmHg 65%
17:00 +27°C° 0 mm 3 m/S 750 mmHg 65%
18:00 +26°C° 0 mm 3 m/S 750 mmHg 71%
19:00 +24°C° 0 mm 3 m/S 750 mmHg 77%
20:00 +21°C° 0 mm 3 m/S 750 mmHg 83%
21:00 +20°C° 0 mm 3 m/S 750 mmHg 86%
22:00 +19°C° 0 mm 3 m/S 750 mmHg 89%
23:00 +19°C° 0 mm 3 m/S 750 mmHg 91%

20 Juni, Sonntag

Zeit Temperatur Niederschläge Wind Luftdruck Luftfeuchtigkeit
00:00 +18°C° 0 mm 2 m/S 750 mmHg 91%
01:00 +18°C° 0 mm 2 m/S 750 mmHg 92%
02:00 +17°C° 0 mm 2 m/S 750 mmHg 92%
03:00 +17°C° 0 mm 2 m/S 750 mmHg 92%
04:00 +17°C° 0 mm 2 m/S 750 mmHg 91%
05:00 +17°C° 0 mm 2 m/S 750 mmHg 91%
06:00 +19°C° 0 mm 3 m/S 750 mmHg 85%
07:00 +20°C° 0 mm 3 m/S 750 mmHg 80%
08:00 +22°C° 0 mm 3 m/S 750 mmHg 74%
09:00 +23°C° 0 mm 4 m/S 750 mmHg 69%
10:00 +25°C° 0 mm 4 m/S 750 mmHg 64%
11:00 +26°C° 0 mm 4 m/S 750 mmHg 59%
12:00 +27°C° 0 mm 3 m/S 749 mmHg 59%
13:00 +27°C° 0 mm 3 m/S 749 mmHg 58%
14:00 +27°C° 0 mm 3 m/S 749 mmHg 58%
15:00 +26°C° 0 mm 3 m/S 749 mmHg 63%
16:00 +25°C° 0 mm 3 m/S 749 mmHg 68%
17:00 +25°C° 0 mm 3 m/S 749 mmHg 72%
18:00 +24°C° 0 mm 3 m/S 749 mmHg 74%
19:00 +23°C° 0 mm 2 m/S 749 mmHg 75%
20:00 +23°C° 0 mm 2 m/S 749 mmHg 76%
21:00 +23°C° 0 mm 2 m/S 749 mmHg 75%
22:00 +21°C° 0 mm 2 m/S 749 mmHg 73%
23:00 +21°C° 0 mm 3 m/S 748 mmHg 72%
Mehr zeigen

Wir brauchen deine Erlaubnis

Meteoprog und unser Service Anbieter werden persönliche Daten aufbewahren, so wie Cookies, Geräte Bezeichnung oder ähnliche Technologien von deinem Gerät und Prozess, so wie Persönliche Daten Inhalte und Werbungen, genauso wie social Media und den Verkehr zu analysieren.

  • Aufbewahrung und/oder Zugang zu deiner Geräte Informationen.

    Cookies, Geräte Bezeichnung oder andere Informationen, können aufbewahrt oder Zugang zu deinem Gerät erhalten, für den Grund, der oben angegeben wird.

  • Personalisierte Werbung und Inhalte, Messungen, Einblick in das Publikum und Produkt Entwicklung.

    Werbungen und Inhalte können personalisiert werden, basierend auf ein Profil. Mehr Daten können besser personalisierte Werbungen und Inhalte hinzufügen. Werbung und Inhalte können gezeigt und gemessen werden. Einblicke über das Publikum, welche die Werbung gesehen haben und den Inhalt, können abgeleitet werden. So wie Daten können genutzt werden, um es zu verbessern oder die Benutzer Erfahrung zu verbessern das System und die Software.

Wenn du “Ich stimme zu” klickst, erlaubst du uns, die Cookies zu benutzen die Geräte Bezeichnung, den Web oder ähnliche Technologien zu benutzen. Deine Settings, können in deinem Gerät bei deinem Browser geändert werden.

Für den bestimmten Zweck, berechtigten Interessen beruhen darauf, mehr als auf den Inhalt. Du kannst mehr darüber in unseren Privaten und Cookie Politik lesen.